Terminal Aerodrome Forecast
Issued by NWS

Home | Current Version | Previous Version | Graphics & Text | Print | Product List | Glossary On
Versions: 1 2 3 4 5 6 7 8 9 10 11 12 13 14 15
000
FTUS43 KTOP 102157 AAA
TAFFOE
TAF AMD
KFOE 102157Z 1022/1118 31011KT P6SM FEW250
     FM110000 29005KT P6SM SKC
     FM111500 30018G27KT P6SM FEW250=

USA.gov is the U.S. government's official web portal to all federal, state and local government web resources and services.